Regional Weather Roundup
Issued by NWS

Home | Current Version | Previous Version | Graphics & Text | Print | Product List | Glossary On
Versions: 1 2 3 4 5 6 7 8 9 10 11 12 13 14 15 16 17 18 19 20 21 22 23 24 25 26 27 28 29 30 31 32 33 34 35 36 37 38 39 40 41 42 43 44 45 46 47 48 49 50
000
ASUS44 KMEG 301410
RWRTN
TENNESSEE HOURLY STATE WEATHER ROUNDUP
NATIONAL WEATHER SERVICE MEMPHIS TN
800 AM CST FRI JAN 30 2015

TNZ002-004-019-021-049-052-054-088>092-301500-
WEST TENNESSEE

CITY           SKY/WX    TMP DP  RH WIND       PRES   REMARKS
MEMPHIS INTL   MOSUNNY   38  28  67 N9        30.49R WCI  31
NWS MEMPHIS      N/A     34 N/A N/A MISG        N/A
JACKSON        CLOUDY    37  25  61 NE10      30.49R WCI  30
DYERSBURG      MOSUNNY   34  18  51 N7        30.52R WCI  28
UNION CITY     MOSUNNY   30  25  80 N6        30.48R WCI  24
PARIS          CLOUDY    32  21  64 N9        30.47S WCI  24
LEXINGTON      CLOUDY    34  23  64 NE9       30.46R WCI  26
SAVANNAH       CLOUDY    37  25  60 NE10      30.47R WCI  30
$$

TNZ008-025-027-028-033-062-065-066-301500-
NORTH MIDDLE TENNESSEE

CITY           SKY/WX    TMP DP  RH WIND       PRES   REMARKS
NASHVILLE      CLOUDY    36  22  56 N14       30.46R WCI  27
CLARKSVILLE    CLOUDY    35  25  66 N8        30.47R WCI  29
SMYRNA         CLOUDY    35  25  67 N13       30.46R WCI  26
COOKEVILLE     PTSUNNY   34  25  69 N7        30.38R WCI  28
CROSSVILLE     CLOUDY    32  25  75 NW14G21   30.34R WCI  22
$$

TNZ061-075-076-078-094-096-097-301500-
SOUTH MIDDLE TENNESSEE

CITY           SKY/WX    TMP DP  RH WIND       PRES   REMARKS
FAYETTEVILLE   CLOUDY    34  21  60 MISG      30.40R
TULLAHOMA      CLOUDY    32  23  69 N15       30.41R WCI  22
WINCHESTER     CLOUDY    34  25  69 N10       30.40R WCI  26
MCMINNVILLE    CLOUDY    34  25  69 N10       30.40R WCI  26
COLUMBIA       CLOUDY    36  28  75 N10       30.42R WCI  28
SHELBYVILLE    CLOUDY    36  27  69 N12       30.44R WCI  27
$$

TNZ017-018-042-046-047-301500-
NORTHEAST TENNESSEE

CITY           SKY/WX    TMP DP  RH WIND       PRES   REMARKS
TRI CITIES     FLURRIES  33  23  66 NW15G21   30.26R WCI  23
ELIZABETHTON   CLOUDY    30  21  69 W9        30.23R WCI  22
$$

TNZ012-013-036-069-073-074-301500-
CENTRAL EAST TENNESSEE

CITY           SKY/WX    TMP DP  RH WIND       PRES   REMARKS
KNOXVILLE      CLOUDY    36  24  62 N9        30.35R WCI  29
OAK RIDGE      CLOUDY    37  24  59 VRB7G17   30.37R WCI  32
GATLINBURG     CLOUDY    34  23  64 NW3       30.33S
MORRISTOWN     PTSUNNY   34  25  69 NW12      30.31R WCI  25
$$

TNZ083-085-099-301500-
SOUTHEAST TENNESSEE

CITY           SKY/WX    TMP DP  RH WIND       PRES   REMARKS
CHATTANOOGA    CLOUDY    39  25  57 N16G25    30.38R WCI  30
$$

SKY/WX REPORTED AS FAIR MEANS FEW OR NO CLOUDS BELOW
12 THOUSAND FEET.



USA.gov is the U.S. government's official web portal to all federal, state and local government web resources and services.